Location: Croissy-Beaubourg
(48.8283°N, 2.6696°E)
Time: 00:13:00
(UTC+00:00)

USA 215 - Pass Details

Date: 27 May 2022
Orbit: 1099 x 1108 km, 123.0° (Epoch: 10 June)

Event Time Altitude Azimuth Distance (km) Brightness Sun altitude
Rises 03:00:45 0° 81° (E) 3,917 7.1 -7.6°
Reaches altitude 10° 03:03:20 10° 76° (ENE) 2,961 6.6 -7.3°
Maximum altitude 03:09:27 45° 6° (N) 1,470 4.4 -6.6°
Drops below altitude 10° 03:15:35 10° 297° (WNW) 2,968 5.3 -5.9°
Sets 03:18:11 0° 291° (WNW) 3,928 5.9 -5.5°
